CW9585 Weather Reports


Display with metric or nautical units.
time (UTC)temp
F
wind
direction
speed
MPH
gust
MPH
rain 1hr
in
rain 24hr
in
rain mn
in
humidity
%
barometer
mb
20260831043704 58 78 4.0 10.0 0.00 0.00 0.00 89 1014.4
20260831043205 58 121 4.0 10.0 0.00 0.00 0.00 89 1014.4
20260831042704 58 115 4.0 9.0 0.00 0.00 0.00 89 1014.3
20260831042204 58 117 3.0 9.0 0.00 0.00 0.00 89 1014.3
20260831041204 58 120 4.0 11.0 0.00 0.00 0.00 89 1014.1
20260831040705 58 84 5.0 11.0 0.00 0.00 0.00 89 1014.1
20260831040205 59 101 4.0 9.0 0.00 0.00 0.00 88 1014.0
20260831035204 59 83 4.0 9.0 0.00 0.00 0.00 88 1013.9
20260831034206 60 135 4.0 9.0 0.00 0.00 0.00 87 1013.7
20260831033704 60 110 4.0 10.0 0.00 0.00 0.00 87 1013.6
20260831033204 60 88 5.0 10.0 0.00 0.00 0.00 87 1013.5
20260831032704 60 75 5.0 10.0 0.00 0.00 0.00 86 1013.4
20260831031705 60 63 5.0 11.0 0.00 0.00 0.00 85 1013.2
20260831031204 60 60 5.0 11.0 0.00 0.00 0.00 84 1013.2
20260831030205 61 37 5.0 10.0 0.00 0.00 0.00 82 1013.2
20260831025704 62 97 5.0 10.0 0.00 0.00 0.00 81 1013.1
20260831025204 62 59 5.0 12.0 0.00 0.00 0.00 80 1013.1
20260831024704 63 57 5.0 12.0 0.00 0.00 0.00 79 1013.1
20260831024204 63 69 5.0 10.0 0.00 0.00 0.00 78 1013.1
20260831023703 64 49 4.0 9.0 0.00 0.00 0.00 78 1013.1
20260831023204 64 84 4.0 10.0 0.00 0.00 0.00 77 1013.0
20260831022704 64 80 4.0 10.0 0.00 0.00 0.00 77 1013.0
20260831022204 65 57 4.0 10.0 0.00 0.00 0.00 76 1013.0
20260831021704 65 76 3.0 8.0 0.00 0.00 0.00 75 1012.9
20260831021205 65 61 4.0 7.0 0.00 0.00 0.00 74 1012.9
20260831020704 66 107 3.0 7.0 0.00 0.00 0.00 73 1013.0
20260831020204 66 54 2.0 7.0 0.00 0.00 0.00 73 1013.1
20260831015705 67 55 1.0 6.0 0.00 0.00 0.00 73 1012.9
20260831015205 67 161 2.0 6.0 0.00 0.00 0.00 73 1012.9
20260831013704 68 186 2.0 4.0 0.00 0.00 0.00 71 1012.9
20260831013204 68 165 2.0 6.0 0.00 0.00 0.00 71 1012.8
20260831012704 68 222 2.0 6.0 0.00 0.00 0.00 71 1012.8
20260831011705 68 246 4.0 8.0 0.00 0.00 0.00 71 1012.9
20260831011204 68 217 4.0 8.0 0.00 0.00 0.00 70 1013.0
20260831010204 69 220 4.0 7.0 0.00 0.00 0.00 70 1013.0
20260831005205 69 213 4.0 8.0 0.00 0.00 0.00 69 1013.0
20260831004705 69 234 5.0 8.0 0.00 0.00 0.00 69 1013.0
20260831004204 70 213 4.0 9.0 0.00 0.00 0.00 67 1013.0
20260831003704 70 206 4.0 9.0 0.00 0.00 0.00 68 1013.0
20260831003204 70 215 5.0 9.0 0.00 0.00 0.00 67 1012.9
20260831002705 71 218 4.0 8.0 0.00 0.00 0.00 66 1013.0
20260831002205 71 163 4.0 8.0 0.00 0.00 0.00 65 1013.0
20260831001704 71 213 4.0 8.0 0.00 0.00 0.00 65 1013.0
20260831001205 72 207 4.0 8.0 0.00 0.00 0.00 64 1013.1
20260831000704 72 209 4.0 7.0 0.00 0.00 0.00 64 1013.1
20260830235704 72 198 3.0 8.0 0.00 0.00 0.00 65 1013.2
20260830235205 71 186 4.0 8.0 0.00 0.00 0.00 66 1013.1
20260830234704 71 178 4.0 9.0 0.00 0.00 0.00 66 1013.2
20260830234205 72 207 4.0 9.0 0.00 0.00 0.00 66 1013.2
20260830233704 72 200 5.0 9.0 0.00 0.00 0.00 66 1013.2
20260830233204 72 202 5.0 9.0 0.00 0.00 0.00 65 1013.3
20260830232704 72 261 5.0 9.0 0.00 0.00 0.00 65 1013.3
20260830232204 72 205 4.0 9.0 0.00 0.00 0.00 65 1013.3
20260830231705 72 158 4.0 8.0 0.00 0.00 0.00 65 1013.4
20260830231204 72 209 4.0 8.0 0.00 0.00 0.00 66 1013.4
20260830230704 72 180 4.0 8.0 0.00 0.00 0.00 66 1013.5
20260830230204 72 228 5.0 9.0 0.00 0.00 0.00 66 1013.5
20260830225705 71 273 5.0 9.0 0.00 0.00 0.00 66 1013.5
20260830225205 72 212 5.0 10.0 0.00 0.00 0.00 66 1013.5
20260830224705 72 203 5.0 10.0 0.00 0.00 0.00 66 1013.5
20260830224205 72 200 5.0 10.0 0.00 0.00 0.00 66 1013.5
20260830223704 72 192 5.0 10.0 0.00 0.00 0.00 66 1013.6
20260830223204 72 213 5.0 10.0 0.00 0.00 0.00 65 1013.6
20260830222704 72 234 5.0 10.0 0.00 0.00 0.00 65 1013.6
20260830221704 72 214 5.0 10.0 0.00 0.00 0.00 64 1013.6
20260830220704 72 214 5.0 9.0 0.00 0.00 0.00 63 1013.8
20260830220204 72 214 5.0 11.0 0.00 0.00 0.00 63 1013.9
20260830215704 72 205 6.0 11.0 0.00 0.00 0.00 64 1013.9
20260830215204 72 155 6.0 10.0 0.00 0.00 0.00 63 1014.0
20260830214204 72 154 6.0 10.0 0.00 0.00 0.00 63 1014.0
20260830212704 72 205 5.0 9.0 0.00 0.00 0.00 64 1014.4
20260830212204 71 178 5.0 8.0 0.00 0.00 0.00 65 1014.4
20260830211705 71 160 5.0 8.0 0.00 0.00 0.00 64 1014.5
20260830211204 71 213 4.0 9.0 0.00 0.00 0.00 64 1014.5
20260830210204 70 235 5.0 10.0 0.00 0.00 0.00 66 1014.7
20260830205705 70 218 5.0 10.0 0.00 0.00 0.00 66 1014.7
20260830204704 70 178 6.0 10.0 0.00 0.00 0.00 67 1014.8
20260830204205 70 186 5.0 10.0 0.00 0.00 0.00 67 1014.8
20260830203704 70 213 5.0 10.0 0.00 0.00 0.00 67 1014.8
20260830203204 70 221 5.0 10.0 0.00 0.00 0.00 67 1014.9
20260830202204 69 184 5.0 10.0 0.00 0.00 0.00 68 1015.0
20260830201704 69 192 5.0 10.0 0.00 0.00 0.00 69 1015.1
20260830201204 69 168 5.0 10.0 0.00 0.00 0.00 69 1015.1
20260830200704 69 142 5.0 10.0 0.00 0.00 0.00 69 1015.1
20260830200205 69 181 5.0 10.0 0.00 0.00 0.00 69 1015.2
20260830195705 69 209 5.0 10.0 0.00 0.00 0.00 68 1015.3
20260830194204 68 211 4.0 8.0 0.00 0.00 0.00 70 1015.3
20260830193704 68 203 4.0 8.0 0.00 0.00 0.00 71 1015.3
20260830193204 68 199 4.0 9.0 0.00 0.00 0.00 72 1015.3
20260830192704 68 213 3.0 11.0 0.00 0.00 0.00 72 1015.5
20260830192204 67 150 4.0 11.0 0.00 0.00 0.00 74 1015.5
20260830191704 67 239 5.0 9.0 0.00 0.00 0.00 73 1015.5
20260830190704 66 196 4.0 9.0 0.00 0.00 0.00 74 1015.5
20260830190203 66 239 4.0 10.0 0.00 0.00 0.00 74 1015.6
20260830185704 66 190 4.0 12.0 0.00 0.00 0.00 76 1015.7
20260830185204 65 144 5.0 12.0 0.00 0.00 0.00 79 1015.7
20260830184705 64 108 5.0 12.0 0.00 0.00 0.00 79 1015.8
20260830184205 64 199 5.0 9.0 0.00 0.00 0.00 79 1015.9
20260830183705 64 189 5.0 9.0 0.00 0.00 0.00 79 1015.9
20260830182705 64 150 4.0 8.0 0.00 0.00 0.00 79 1015.9
20260830182204 64 119 4.0 9.0 0.00 0.00 0.00 79 1015.9
20260830181705 64 186 4.0 9.0 0.00 0.00 0.00 79 1015.9
20260830181205 64 113 4.0 9.0 0.00 0.00 0.00 79 1015.9
20260830180704 64 181 3.0 8.0 0.00 0.00 0.00 79 1015.9
20260830180204 64 146 4.0 8.0 0.00 0.00 0.00 79 1015.9
20260830175204 64 153 4.0 9.0 0.00 0.00 0.00 79 1015.9
20260830174704 64 155 4.0 9.0 0.00 0.00 0.00 80 1015.8
20260830174204 63 187 4.0 9.0 0.00 0.00 0.00 81 1015.9
20260830172704 62 159 5.0 9.0 0.00 0.00 0.00 80 1015.9
20260830172204 62 115 4.0 9.0 0.00 0.00 0.00 81 1015.9
20260830171704 62 109 4.0 9.0 0.00 0.00 0.00 81 1016.0
20260830171204 62 96 5.0 9.0 0.00 0.00 0.00 81 1015.9
20260830170704 62 98 5.0 9.0 0.00 0.00 0.00 81 1015.8
20260830170205 62 148 5.0 9.0 0.00 0.00 0.00 82 1015.9
20260830165204 62 147 5.0 9.0 0.00 0.00 0.00 82 1015.9
20260830164704 62 154 5.0 9.0 0.00 0.00 0.00 83 1015.7
20260830164205 62 138 4.0 7.0 0.00 0.00 0.00 84 1015.8
20260830163704 61 124 3.0 6.0 0.00 0.00 0.00 86 1015.8
20260830163204 61 125 2.0 6.0 0.00 0.00 0.00 87 1015.8
20260830162205 60 165 2.0 5.0 0.00 0.00 0.00 89 1015.8
20260830161704 60 112 0.0 0.0 0.00 0.00 0.00 90 1015.8
20260830160704 58 100 0.0 0.0 0.00 0.00 0.00 91 1015.8
20260830160205 58 287 0.0 0.0 0.00 0.00 0.00 92 1015.9
20260830155205 57 61 0.0 3.0 0.00 0.00 0.00 92 1015.8
20260830154704 57 61 0.0 3.0 0.00 0.00 0.00 92 1015.9
20260830154204 56 61 1.0 4.0 0.00 0.00 0.00 93 1016.0
20260830153704 56 17 1.0 4.0 0.00 0.00 0.00 93 1015.9
20260830153204 55 40 1.0 3.0 0.00 0.00 0.00 92 1016.0
20260830152704 55 9 0.0 0.0 0.00 0.00 0.00 93 1016.1
20260830152204 55 19 0.0 0.0 0.00 0.00 0.00 93 1016.1
20260830151204 54 339 0.0 0.0 0.00 0.00 0.00 93 1016.1
20260830150705 54 339 0.0 0.0 0.00 0.00 0.00 93 1016.0
20260830150204 54 339 0.0 0.0 0.00 0.00 0.00 93 1015.9
20260830145704 54 340 0.0 0.0 0.00 0.00 0.00 93 1016.0
20260830145205 54 28 0.0 0.0 0.00 0.00 0.00 93 1016.0
20260830144704 54 44 0.0 0.0 0.00 0.00 0.00 93 1016.0
20260830144205 53 33 0.0 0.0 0.00 0.00 0.00 93 1015.9
20260830143704 53 33 0.0 0.0 0.00 0.00 0.00 93 1016.0
20260830143205 53 33 0.0 0.0 0.00 0.00 0.00 93 1015.8
20260830142704 53 33 0.0 1.0 0.00 0.00 0.00 93 1015.8
20260830142205 53 44 0.0 1.0 0.00 0.00 0.00 93 1015.7
20260830141705 53 44 0.0 1.0 0.00 0.00 0.00 93 1015.7
20260830141204 53 44 0.0 2.0 0.00 0.00 0.00 93 1015.7
20260830140204 53 44 0.0 2.0 0.00 0.00 0.00 93 1015.7
20260830135704 53 44 0.0 2.0 0.00 0.00 0.00 93 1015.6
20260830135205 53 340 0.0 0.0 0.00 0.00 0.00 93 1015.5
20260830134704 53 33 0.0 0.0 0.00 0.00 0.00 93 1015.5
20260830134205 53 9 0.0 0.0 0.00 0.00 0.00 93 1015.4
20260830133705 53 9 0.0 0.0 0.00 0.00 0.00 93 1015.3
20260830133204 53 9 0.0 0.0 0.00 0.00 0.00 93 1015.2
20260830132704 53 36 0.0 0.0 0.00 0.00 0.00 93 1015.3
20260830132204 53 11 0.0 0.0 0.00 0.00 0.00 93 1015.3
20260830131704 53 11 0.0 0.0 0.00 0.00 0.00 93 1015.2
20260830130705 53 11 0.0 0.0 0.00 0.00 0.00 93 1015.3
20260830125205 53 11 0.0 0.0 0.00 0.00 0.00 93 1015.2
20260830124705 53 11 0.0 0.0 0.00 0.00 0.00 93 1015.1
20260830124205 53 11 0.0 0.0 0.00 0.00 0.00 93 1015.1
20260830123205 53 11 0.0 0.0 0.00 0.00 0.00 93 1015.1
20260830122205 53 11 0.0 0.0 0.00 0.00 0.00 93 1015.1
20260830121704 53 11 0.0 0.0 0.00 0.00 0.00 93 1015.1
20260830121206 53 32 0.0 0.0 0.00 0.00 0.00 93 1015.0
20260830120704 53 32 0.0 0.0 0.00 0.00 0.00 93 1014.9
20260830120204 53 28 0.0 0.0 0.00 0.00 0.00 93 1015.0
20260830115705 53 5 0.0 0.0 0.00 0.00 0.00 93 1015.0
20260830115204 53 5 0.0 0.0 0.00 0.00 0.00 92 1015.0
20260830114705 53 5 0.0 0.0 0.00 0.00 0.00 92 1014.9
20260830114205 53 5 0.0 1.0 0.00 0.00 0.00 92 1015.0
20260830113705 53 5 0.0 1.0 0.00 0.00 0.00 92 1015.0
20260830113204 53 5 0.0 1.0 0.00 0.00 0.00 92 1015.0
20260830112705 53 0 0.0 0.0 0.00 0.00 0.00 92 1015.0
20260830112204 54 31 0.0 0.0 0.00 0.00 0.00 92 1015.0
20260830111704 54 31 0.0 0.0 0.00 0.00 0.00 92 1015.0
20260830111204 54 31 0.0 0.0 0.00 0.00 0.00 92 1015.0
20260830110205 54 31 0.0 0.0 0.00 0.00 0.00 92 1014.9
20260830105705 54 31 0.0 0.0 0.00 0.00 0.00 92 1015.1
20260830105205 54 10 0.0 1.0 0.00 0.00 0.00 92 1014.9
20260830104704 54 10 0.0 2.0 0.00 0.00 0.00 92 1014.9
20260830104204 54 10 0.0 2.0 0.00 0.00 0.00 92 1014.8
20260830103705 54 10 0.0 2.0 0.00 0.00 0.00 92 1014.8
20260830103204 54 346 0.0 0.0 0.00 0.00 0.00 92 1014.7
20260830102205 54 346 0.0 0.0 0.00 0.00 0.00 92 1014.7
20260830101705 54 346 0.0 0.0 0.00 0.00 0.00 91 1014.8
20260830101204 54 346 0.0 0.0 0.00 0.00 0.00 91 1014.7
20260830100704 54 346 0.0 0.0 0.00 0.00 0.00 92 1014.9
20260830095705 54 346 0.0 0.0 0.00 0.00 0.00 91 1014.8
20260830095205 54 346 0.0 0.0 0.00 0.00 0.00 91 1014.8
20260830094704 54 346 0.0 1.0 0.00 0.00 0.00 91 1014.7
20260830094205 55 346 0.0 1.0 0.00 0.00 0.00 91 1014.7
20260830093204 55 346 0.0 0.0 0.00 0.00 0.00 91 1014.7
20260830092705 55 346 0.0 0.0 0.00 0.00 0.00 91 1014.6
20260830092205 55 346 0.0 0.0 0.00 0.00 0.00 91 1014.8
20260830091705 55 346 0.0 0.0 0.00 0.00 0.00 91 1014.8
20260830090704 55 346 0.0 0.0 0.00 0.00 0.00 91 1014.8
20260830090204 55 346 0.0 0.0 0.00 0.00 0.00 91 1014.9
20260830085704 55 346 0.0 0.0 0.00 0.00 0.00 91 1014.9
20260830085204 55 346 0.0 2.0 0.00 0.00 0.00 91 1014.9
20260830084204 56 346 0.0 2.0 0.00 0.00 0.00 91 1014.9
20260830083204 56 338 1.0 3.0 0.00 0.00 0.00 91 1015.0
20260830082704 56 338 1.0 3.0 0.00 0.00 0.00 91 1015.0
20260830082205 56 328 1.0 3.0 0.00 0.00 0.00 91 1015.0
20260830080705 56 16 0.0 0.0 0.00 0.00 0.00 90 1015.2
20260830080205 56 355 0.0 0.0 0.00 0.00 0.00 90 1015.3
20260830075704 56 355 0.0 0.0 0.00 0.00 0.00 90 1015.2
20260830074705 56 355 0.0 0.0 0.00 0.00 0.00 90 1015.2
20260830073704 57 355 0.0 0.0 0.00 0.00 0.00 90 1015.3
20260830072705 57 355 0.0 0.0 0.00 0.00 0.00 90 1015.3
20260830072205 57 355 0.0 0.0 0.00 0.00 0.00 90 1015.2
20260830071704 57 355 0.0 0.0 0.00 0.00 0.00 90 1015.2
20260830071204 57 355 0.0 0.0 0.00 0.00 0.00 90 1015.3
20260830070704 57 355 0.0 0.0 0.00 0.00 0.00 89 1015.2
20260830070204 58 355 0.0 0.0 0.00 0.00 0.00 89 1015.2
20260830065704 58 327 0.0 0.0 0.00 0.00 0.00 90 1015.2
20260830065204 58 327 0.0 0.0 0.00 0.00 0.00 89 1015.1
20260830064704 58 267 0.0 0.0 0.00 0.00 0.00 89 1015.2
20260830064204 58 267 0.0 0.0 0.00 0.00 0.00 89 1015.1
20260830063704 58 267 0.0 0.0 0.00 0.00 0.00 89 1015.1
20260830063204 58 267 0.0 0.0 0.00 0.00 0.00 89 1015.1
20260830062704 58 267 0.0 0.0 0.00 0.00 0.00 89 1015.1
20260830062204 58 267 0.0 0.0 0.00 0.00 0.00 89 1015.1
20260830061704 58 267 0.0 0.0 0.00 0.00 0.00 89 1015.2
20260830061204 58 267 0.0 0.0 0.00 0.00 0.00 88 1015.2
20260830060704 59 267 0.0 0.0 0.00 0.00 0.00 88 1015.2
20260830060205 59 267 0.0 0.0 0.00 0.00 0.00 88 1015.3
20260830055705 59 267 0.0 0.0 0.00 0.00 0.00 88 1015.2
20260830054704 59 267 0.0 0.0 0.00 0.00 0.00 88 1015.2
20260830054204 59 267 0.0 0.0 0.00 0.00 0.00 87 1015.2
20260830053705 59 267 0.0 0.0 0.00 0.00 0.00 87 1015.2
20260830052704 59 267 0.0 0.0 0.00 0.00 0.00 87 1015.2
20260830052204 59 267 0.0 0.0 0.00 0.00 0.00 87 1015.2
20260830051705 60 267 0.0 0.0 0.00 0.00 0.00 87 1015.2
20260830051205 60 267 0.0 1.0 0.00 0.00 0.00 87 1015.2
20260830050705 60 267 0.0 2.0 0.00 0.00 0.00 86 1015.3
20260830050204 60 267 0.0 2.0 0.00 0.00 0.00 86 1015.3
20260830045204 60 267 0.0 1.0 0.00 0.00 0.00 86 1015.2
20260830044204 60 267 0.0 3.0 0.00 0.00 0.00 86 1015.2